Year,Month,Day,Hour,Minute,Value (Times are PST for temperature in C)
2016,10,20,00,00,11.20
2016,10,20,00,01,11.20
2016,10,20,00,02,11.30
2016,10,20,00,03,11.30
2016,10,20,00,04,11.30
2016,10,20,00,05,11.30
2016,10,20,00,06,11.40
2016,10,20,00,07,11.40
2016,10,20,00,08,11.40
2016,10,20,00,09,11.40
2016,10,20,00,10,11.40
2016,10,20,00,11,11.40
2016,10,20,00,12,11.40
2016,10,20,00,13,11.40
2016,10,20,00,14,11.40
2016,10,20,00,15,11.40
2016,10,20,00,16,11.40
2016,10,20,00,17,11.40
2016,10,20,00,18,11.40
2016,10,20,00,19,11.30
2016,10,20,00,20,11.30
2016,10,20,00,21,11.30
2016,10,20,00,22,11.30
2016,10,20,00,23,11.30
2016,10,20,00,24,11.30
2016,10,20,00,25,11.20
2016,10,20,00,26,11.20
2016,10,20,00,27,11.20
2016,10,20,00,28,11.20
2016,10,20,00,29,11.20
2016,10,20,00,30,11.20
2016,10,20,00,31,11.20
2016,10,20,00,32,11.20
2016,10,20,00,33,11.20
2016,10,20,00,34,11.10
2016,10,20,00,35,11.10
2016,10,20,00,36,11.10
2016,10,20,00,37,11.10
2016,10,20,00,38,11.10
2016,10,20,00,39,11.10
2016,10,20,00,40,11.10
2016,10,20,00,41,11.10
2016,10,20,00,42,11.10
2016,10,20,00,43,11.10
2016,10,20,00,44,11.10
2016,10,20,00,45,11.10
2016,10,20,00,46,11.10
2016,10,20,00,47,11.10
2016,10,20,00,48,11.10
2016,10,20,00,49,11.10
2016,10,20,00,50,11.10
2016,10,20,00,51,11.10
2016,10,20,00,52,11.10
2016,10,20,00,53,11.00
2016,10,20,00,54,11.00
2016,10,20,00,55,11.00
2016,10,20,00,56,11.00
2016,10,20,00,57,11.00
2016,10,20,00,58,11.00
2016,10,20,00,59,11.00
2016,10,20,01,00,11.00
2016,10,20,01,01,11.10
2016,10,20,01,02,11.10
2016,10,20,01,03,11.10
2016,10,20,01,04,11.10
2016,10,20,01,05,11.10
2016,10,20,01,06,11.10
2016,10,20,01,07,11.10
2016,10,20,01,08,11.10
2016,10,20,01,09,11.10
2016,10,20,01,10,11.10
2016,10,20,01,11,11.10
2016,10,20,01,12,11.10
2016,10,20,01,13,11.10
2016,10,20,01,14,11.10
2016,10,20,01,15,11.10
2016,10,20,01,16,11.10
2016,10,20,01,17,11.10
2016,10,20,01,18,11.00
2016,10,20,01,19,11.00
2016,10,20,01,20,11.00
2016,10,20,01,21,11.00
2016,10,20,01,22,10.90
2016,10,20,01,23,10.90
2016,10,20,01,24,10.90
2016,10,20,01,25,10.90
2016,10,20,01,26,10.90
2016,10,20,01,27,11.00
2016,10,20,01,28,11.00
2016,10,20,01,29,11.00
2016,10,20,01,30,11.00
2016,10,20,01,31,11.00
2016,10,20,01,32,11.00
2016,10,20,01,33,10.90
2016,10,20,01,34,10.90
2016,10,20,01,35,10.90
2016,10,20,01,36,10.90
2016,10,20,01,37,10.90
2016,10,20,01,38,10.90
2016,10,20,01,39,10.90
2016,10,20,01,40,10.90
2016,10,20,01,41,10.90
2016,10,20,01,42,10.90
2016,10,20,01,43,10.90
2016,10,20,01,44,10.90
2016,10,20,01,45,10.90
2016,10,20,01,46,10.90
2016,10,20,01,47,10.90
2016,10,20,01,48,10.90
2016,10,20,01,49,10.90
2016,10,20,01,50,10.90
2016,10,20,01,51,10.90
2016,10,20,01,52,10.90
2016,10,20,01,53,10.90
2016,10,20,01,54,11.00
2016,10,20,01,55,11.00
2016,10,20,01,56,11.00
2016,10,20,01,57,11.00
2016,10,20,01,58,11.00
2016,10,20,01,59,11.10
2016,10,20,02,00,11.10
2016,10,20,02,01,11.10
2016,10,20,02,02,11.00
2016,10,20,02,03,11.00
2016,10,20,02,04,11.00
2016,10,20,02,05,11.00
2016,10,20,02,06,11.00
2016,10,20,02,07,11.00
2016,10,20,02,08,10.90
2016,10,20,02,09,10.90
2016,10,20,02,10,10.90
2016,10,20,02,11,10.90
2016,10,20,02,12,10.90
2016,10,20,02,13,10.90
2016,10,20,02,14,10.90
2016,10,20,02,15,10.90
2016,10,20,02,16,10.90
2016,10,20,02,17,10.90
2016,10,20,02,18,10.90
2016,10,20,02,19,10.90
2016,10,20,02,20,10.90
2016,10,20,02,21,10.80
2016,10,20,02,22,10.80
2016,10,20,02,23,10.80
2016,10,20,02,24,10.80
2016,10,20,02,25,10.80
2016,10,20,02,26,10.80
2016,10,20,02,27,10.80
2016,10,20,02,28,10.70
2016,10,20,02,29,10.70
2016,10,20,02,30,10.70
2016,10,20,02,31,10.70
2016,10,20,02,32,10.70
2016,10,20,02,33,10.70
2016,10,20,02,34,10.70
2016,10,20,02,35,10.70
2016,10,20,02,36,10.70
2016,10,20,02,37,10.70
2016,10,20,02,38,10.70
2016,10,20,02,39,10.70
2016,10,20,02,40,10.70
2016,10,20,02,41,10.70
2016,10,20,02,42,10.70
2016,10,20,02,43,10.70
2016,10,20,02,44,10.70
2016,10,20,02,45,10.70
2016,10,20,02,46,10.70
2016,10,20,02,47,10.70
2016,10,20,02,48,10.70
2016,10,20,02,49,10.70
2016,10,20,02,50,10.70
2016,10,20,02,51,10.60
2016,10,20,02,52,10.60
2016,10,20,02,53,10.60
2016,10,20,02,54,10.60
2016,10,20,02,55,10.60
2016,10,20,02,56,10.60
2016,10,20,02,57,10.60
2016,10,20,02,58,10.60
2016,10,20,02,59,10.60
2016,10,20,03,00,10.60
2016,10,20,03,01,10.60
2016,10,20,03,02,10.60
2016,10,20,03,03,10.60
2016,10,20,03,04,10.60
2016,10,20,03,05,10.60
2016,10,20,03,06,10.60
2016,10,20,03,07,10.60
2016,10,20,03,08,10.60
2016,10,20,03,09,10.60
2016,10,20,03,10,10.60
2016,10,20,03,11,10.60
2016,10,20,03,12,10.60
2016,10,20,03,13,10.60
2016,10,20,03,14,10.60
2016,10,20,03,15,10.60
2016,10,20,03,16,10.60
2016,10,20,03,17,10.70
2016,10,20,03,18,10.70
2016,10,20,03,19,10.70
2016,10,20,03,20,10.70
2016,10,20,03,21,10.70
2016,10,20,03,22,10.70
2016,10,20,03,23,10.70
2016,10,20,03,24,10.70
2016,10,20,03,25,10.70
2016,10,20,03,26,10.70
2016,10,20,03,27,10.70
2016,10,20,03,28,10.70
2016,10,20,03,29,10.70
2016,10,20,03,30,10.70
2016,10,20,03,31,10.70
2016,10,20,03,32,10.70
2016,10,20,03,33,10.70
2016,10,20,03,34,10.70
2016,10,20,03,35,10.70
2016,10,20,03,36,10.70
2016,10,20,03,37,10.70
2016,10,20,03,38,10.70
2016,10,20,03,39,10.70
2016,10,20,03,40,10.70
2016,10,20,03,41,10.70
2016,10,20,03,42,10.70
2016,10,20,03,43,10.70
2016,10,20,03,44,10.70
2016,10,20,03,45,10.70
2016,10,20,03,46,10.70
2016,10,20,03,47,10.70
2016,10,20,03,48,10.70
2016,10,20,03,49,10.70
2016,10,20,03,50,10.70
2016,10,20,03,51,10.70
2016,10,20,03,52,10.70
2016,10,20,03,53,10.80
2016,10,20,03,54,10.70
2016,10,20,03,55,10.80
2016,10,20,03,56,10.80
2016,10,20,03,57,10.80
2016,10,20,03,58,10.80
2016,10,20,03,59,10.80
2016,10,20,04,00,10.80
2016,10,20,04,01,10.80
2016,10,20,04,02,10.80
2016,10,20,04,03,10.80
2016,10,20,04,04,10.80
2016,10,20,04,05,10.70
2016,10,20,04,06,10.80
2016,10,20,04,07,10.70
2016,10,20,04,08,10.70
2016,10,20,04,09,10.70
2016,10,20,04,10,10.70
2016,10,20,04,11,10.70
2016,10,20,04,12,10.70
2016,10,20,04,13,10.70
2016,10,20,04,14,10.70
2016,10,20,04,15,10.70
2016,10,20,04,16,10.70
2016,10,20,04,17,10.70
2016,10,20,04,18,10.70
2016,10,20,04,19,10.70
2016,10,20,04,20,10.70
2016,10,20,04,21,10.70
2016,10,20,04,22,10.70
2016,10,20,04,23,10.70
2016,10,20,04,24,10.70
2016,10,20,04,25,10.70
2016,10,20,04,26,10.70
2016,10,20,04,27,10.70
2016,10,20,04,28,10.70
2016,10,20,04,29,10.70
2016,10,20,04,30,10.70
2016,10,20,04,31,10.70
2016,10,20,04,32,10.70
2016,10,20,04,33,10.70
2016,10,20,04,34,10.70
2016,10,20,04,35,10.70
2016,10,20,04,36,10.70
2016,10,20,04,37,10.70
2016,10,20,04,38,10.70
2016,10,20,04,39,10.70
2016,10,20,04,40,10.70
2016,10,20,04,41,10.70
2016,10,20,04,42,10.70
2016,10,20,04,43,10.70
2016,10,20,04,44,10.70
2016,10,20,04,45,10.70
2016,10,20,04,46,10.70
2016,10,20,04,47,10.70
2016,10,20,04,48,10.70
2016,10,20,04,49,10.70
2016,10,20,04,50,10.70
2016,10,20,04,51,10.70
2016,10,20,04,52,10.70
2016,10,20,04,53,10.70
2016,10,20,04,54,10.70
2016,10,20,04,55,10.70
2016,10,20,04,56,10.70
2016,10,20,04,57,10.70
2016,10,20,04,58,10.70
2016,10,20,04,59,10.70
2016,10,20,05,00,10.70
2016,10,20,05,01,10.70
2016,10,20,05,02,10.70
2016,10,20,05,03,10.70
2016,10,20,05,04,10.70
2016,10,20,05,05,10.70
2016,10,20,05,06,10.70
2016,10,20,05,07,10.70
2016,10,20,05,08,10.70
2016,10,20,05,09,10.70
2016,10,20,05,10,10.70
2016,10,20,05,11,10.70
2016,10,20,05,12,10.70
2016,10,20,05,13,10.70
2016,10,20,05,14,10.70
2016,10,20,05,15,10.80
2016,10,20,05,16,10.80
2016,10,20,05,17,10.80
2016,10,20,05,18,10.80
2016,10,20,05,19,10.80
2016,10,20,05,20,10.80
2016,10,20,05,21,10.80
2016,10,20,05,22,10.80
2016,10,20,05,23,10.80
2016,10,20,05,24,10.80
2016,10,20,05,25,10.80
2016,10,20,05,26,10.80
2016,10,20,05,27,10.80
2016,10,20,05,28,10.80
2016,10,20,05,29,10.80
2016,10,20,05,30,10.80
2016,10,20,05,31,10.80
2016,10,20,05,32,10.80
2016,10,20,05,33,10.80
2016,10,20,05,34,10.80
2016,10,20,05,35,10.80
2016,10,20,05,36,10.80
2016,10,20,05,37,10.80
2016,10,20,05,38,10.80
2016,10,20,05,39,10.80
2016,10,20,05,40,10.80
2016,10,20,05,41,10.80
2016,10,20,05,42,10.80
2016,10,20,05,43,10.80
2016,10,20,05,44,10.80
2016,10,20,05,45,10.80
2016,10,20,05,46,10.80
2016,10,20,05,47,10.70
2016,10,20,05,48,10.70
2016,10,20,05,49,10.70
2016,10,20,05,50,10.70
2016,10,20,05,51,10.70
2016,10,20,05,52,10.70
2016,10,20,05,53,10.70
2016,10,20,05,54,10.70
2016,10,20,05,55,10.70
2016,10,20,05,56,10.70
2016,10,20,05,57,10.70
2016,10,20,05,58,10.70
2016,10,20,05,59,10.60
2016,10,20,06,00,10.60
2016,10,20,06,01,10.60
2016,10,20,06,02,10.60
2016,10,20,06,03,10.60
2016,10,20,06,04,10.60
2016,10,20,06,05,10.60
2016,10,20,06,06,10.60
2016,10,20,06,07,10.60
2016,10,20,06,08,10.60
2016,10,20,06,09,10.60
2016,10,20,06,10,10.60
2016,10,20,06,11,10.60
2016,10,20,06,12,10.50
2016,10,20,06,13,10.50
2016,10,20,06,14,10.50
2016,10,20,06,15,10.50
2016,10,20,06,16,10.50
2016,10,20,06,17,10.50
2016,10,20,06,18,10.50
2016,10,20,06,19,10.50
2016,10,20,06,20,10.40
2016,10,20,06,21,10.40
2016,10,20,06,22,10.40
2016,10,20,06,23,10.40
2016,10,20,06,24,10.40
2016,10,20,06,25,10.40
2016,10,20,06,26,10.40
2016,10,20,06,27,10.30
2016,10,20,06,28,10.30
2016,10,20,06,29,10.30
2016,10,20,06,30,10.30
2016,10,20,06,31,10.30
2016,10,20,06,32,10.30
2016,10,20,06,33,10.30
2016,10,20,06,34,10.30
2016,10,20,06,35,10.30
2016,10,20,06,36,10.30
2016,10,20,06,37,10.30
2016,10,20,06,38,10.30
2016,10,20,06,39,10.20
2016,10,20,06,40,10.20
2016,10,20,06,41,10.20
2016,10,20,06,42,10.20
2016,10,20,06,43,10.20
2016,10,20,06,44,10.20
2016,10,20,06,45,10.20
2016,10,20,06,46,10.20
2016,10,20,06,47,10.20
2016,10,20,06,48,10.20
2016,10,20,06,49,10.20
2016,10,20,06,50,10.20
2016,10,20,06,51,10.20
2016,10,20,06,52,10.20
2016,10,20,06,53,10.20
2016,10,20,06,54,10.20
2016,10,20,06,55,10.20
2016,10,20,06,56,10.20
2016,10,20,06,57,10.20
2016,10,20,06,58,10.20
2016,10,20,06,59,10.20
2016,10,20,07,00,10.20
2016,10,20,07,01,10.20
2016,10,20,07,02,10.20
2016,10,20,07,03,10.20
2016,10,20,07,04,10.30
2016,10,20,07,05,10.30
2016,10,20,07,06,10.30
2016,10,20,07,07,10.30
2016,10,20,07,08,10.30
2016,10,20,07,09,10.30
2016,10,20,07,10,10.30
2016,10,20,07,11,10.30
2016,10,20,07,12,10.30
2016,10,20,07,13,10.40
2016,10,20,07,14,10.40
2016,10,20,07,15,10.40
2016,10,20,07,16,10.40
2016,10,20,07,17,10.40
2016,10,20,07,18,10.40
2016,10,20,07,19,10.40
2016,10,20,07,20,10.40
2016,10,20,07,21,10.40
2016,10,20,07,22,10.40
2016,10,20,07,23,10.40
2016,10,20,07,24,10.40
2016,10,20,07,25,10.40
2016,10,20,07,26,10.40
2016,10,20,07,27,10.40
2016,10,20,07,28,10.40
2016,10,20,07,29,10.40
2016,10,20,07,30,10.40
2016,10,20,07,31,10.40
2016,10,20,07,32,10.40
2016,10,20,07,33,10.40
2016,10,20,07,34,10.40
2016,10,20,07,35,10.40
2016,10,20,07,36,10.40
2016,10,20,07,37,10.40
2016,10,20,07,38,10.40
2016,10,20,07,39,10.50
2016,10,20,07,40,10.50
2016,10,20,07,41,10.50
2016,10,20,07,42,10.50
2016,10,20,07,43,10.50
2016,10,20,07,44,10.50
2016,10,20,07,45,10.50
2016,10,20,07,46,10.50
2016,10,20,07,47,10.50
2016,10,20,07,48,10.50
2016,10,20,07,49,10.50
2016,10,20,07,50,10.50
2016,10,20,07,51,10.50
2016,10,20,07,52,10.50
2016,10,20,07,53,10.50
2016,10,20,07,54,10.50
2016,10,20,07,55,10.50
2016,10,20,07,56,10.50
2016,10,20,07,57,10.50
2016,10,20,07,58,10.50
2016,10,20,07,59,10.50
2016,10,20,08,00,10.50
2016,10,20,08,01,10.50
2016,10,20,08,02,10.50
2016,10,20,08,03,10.50
2016,10,20,08,04,10.50
2016,10,20,08,05,10.50
2016,10,20,08,06,10.50
2016,10,20,08,07,10.50
2016,10,20,08,08,10.50
2016,10,20,08,09,10.60
2016,10,20,08,10,10.60
2016,10,20,08,11,10.60
2016,10,20,08,12,10.60
2016,10,20,08,13,10.60
2016,10,20,08,14,10.60
2016,10,20,08,15,10.60
2016,10,20,08,16,10.50
2016,10,20,08,17,10.50
2016,10,20,08,18,10.50
2016,10,20,08,19,10.50
2016,10,20,08,20,10.50
2016,10,20,08,21,10.50
2016,10,20,08,22,10.50
2016,10,20,08,23,10.50
2016,10,20,08,24,10.50
2016,10,20,08,25,10.60
2016,10,20,08,26,10.60
2016,10,20,08,27,10.60
2016,10,20,08,28,10.60
2016,10,20,08,29,10.60
2016,10,20,08,30,10.60
2016,10,20,08,31,10.60
2016,10,20,08,32,10.60
2016,10,20,08,33,10.60
2016,10,20,08,34,10.60
2016,10,20,08,35,10.60
2016,10,20,08,36,10.60
2016,10,20,08,37,10.60
2016,10,20,08,38,10.60
2016,10,20,08,39,10.60
2016,10,20,08,40,10.60
2016,10,20,08,41,10.50
2016,10,20,08,42,10.50
2016,10,20,08,43,10.50
2016,10,20,08,44,10.50
2016,10,20,08,45,10.50
2016,10,20,08,46,10.50
2016,10,20,08,47,10.50
2016,10,20,08,48,10.50
2016,10,20,08,49,10.50
2016,10,20,08,50,10.50
2016,10,20,08,51,10.50
2016,10,20,08,52,10.50
2016,10,20,08,53,10.50
2016,10,20,08,54,10.50
2016,10,20,08,55,10.50
2016,10,20,08,56,10.50
2016,10,20,08,57,10.50
2016,10,20,08,58,10.50
2016,10,20,08,59,10.50
2016,10,20,09,00,10.50
2016,10,20,09,01,10.50
2016,10,20,09,02,10.60
2016,10,20,09,03,10.60
2016,10,20,09,04,10.60
2016,10,20,09,05,10.60
2016,10,20,09,06,10.60
2016,10,20,09,07,10.60
2016,10,20,09,08,10.60
2016,10,20,09,09,10.60
2016,10,20,09,10,10.60
2016,10,20,09,11,10.60
2016,10,20,09,12,10.60
2016,10,20,09,13,10.60
2016,10,20,09,14,10.60
2016,10,20,09,15,10.60
2016,10,20,09,16,10.60
2016,10,20,09,17,10.60
2016,10,20,09,18,10.60
2016,10,20,09,19,10.50
2016,10,20,09,20,10.50
2016,10,20,09,21,10.50
2016,10,20,09,22,10.50
2016,10,20,09,23,10.40
2016,10,20,09,24,10.40
2016,10,20,09,25,10.40
2016,10,20,09,26,10.50
2016,10,20,09,27,10.50
2016,10,20,09,28,10.50
2016,10,20,09,29,10.50
2016,10,20,09,30,10.50
2016,10,20,09,31,10.50
2016,10,20,09,32,10.50
2016,10,20,09,33,10.50
2016,10,20,09,34,10.50
2016,10,20,09,35,10.50
2016,10,20,09,36,10.60
2016,10,20,09,37,10.60
2016,10,20,09,38,10.70
2016,10,20,09,39,10.70
2016,10,20,09,40,10.80
2016,10,20,09,41,10.80
2016,10,20,09,42,10.80
2016,10,20,09,43,10.80
2016,10,20,09,44,10.90
2016,10,20,09,45,10.80
2016,10,20,09,46,10.80
2016,10,20,09,47,10.80
2016,10,20,09,48,10.80
2016,10,20,09,49,10.80
2016,10,20,09,50,10.90
2016,10,20,09,51,10.90
2016,10,20,09,52,10.90
2016,10,20,09,53,10.90
2016,10,20,09,54,10.80
2016,10,20,09,55,10.80
2016,10,20,09,56,10.80
2016,10,20,09,57,10.80
2016,10,20,09,58,10.80
2016,10,20,09,59,10.80
2016,10,20,10,00,10.80
2016,10,20,10,01,10.80
2016,10,20,10,02,10.90
2016,10,20,10,03,10.90
2016,10,20,10,04,10.90
2016,10,20,10,05,10.90
2016,10,20,10,06,10.90
2016,10,20,10,07,11.00
2016,10,20,10,08,11.00
2016,10,20,10,09,11.10
2016,10,20,10,10,11.10
2016,10,20,10,11,11.00
2016,10,20,10,12,11.00
2016,10,20,10,13,11.00
2016,10,20,10,14,11.00
2016,10,20,10,15,10.90
2016,10,20,10,16,10.90
2016,10,20,10,17,11.00
2016,10,20,10,18,11.00
2016,10,20,10,19,11.10
2016,10,20,10,20,11.20
2016,10,20,10,21,11.30
2016,10,20,10,22,11.30
2016,10,20,10,23,11.30
2016,10,20,10,24,11.40
2016,10,20,10,25,11.40
2016,10,20,10,26,11.50
2016,10,20,10,27,11.50
2016,10,20,10,28,11.60
2016,10,20,10,29,11.60
2016,10,20,10,30,11.70
2016,10,20,10,31,11.70
2016,10,20,10,32,11.80
2016,10,20,10,33,11.90
2016,10,20,10,34,12.00
2016,10,20,10,35,12.00
2016,10,20,10,36,12.10
2016,10,20,10,37,12.10
2016,10,20,10,38,12.10
2016,10,20,10,39,12.10
2016,10,20,10,40,12.10
2016,10,20,10,41,12.10
2016,10,20,10,42,12.10
2016,10,20,10,43,12.10
2016,10,20,10,44,12.10
2016,10,20,10,45,12.20
2016,10,20,10,46,12.20
2016,10,20,10,47,12.20
2016,10,20,10,48,12.30
2016,10,20,10,49,12.40
2016,10,20,10,50,12.50
2016,10,20,10,51,12.60
2016,10,20,10,52,12.70
2016,10,20,10,53,12.80
2016,10,20,10,54,12.90
2016,10,20,10,55,13.00
2016,10,20,10,56,13.10
2016,10,20,10,57,13.20
2016,10,20,10,58,13.20
2016,10,20,10,59,13.30
2016,10,20,11,00,13.30
2016,10,20,11,01,13.40
2016,10,20,11,02,13.40
2016,10,20,11,03,13.50
2016,10,20,11,04,13.60
2016,10,20,11,05,13.60
2016,10,20,11,06,13.60
2016,10,20,11,07,13.60
2016,10,20,11,08,13.60
2016,10,20,11,09,13.50
2016,10,20,11,10,13.50
2016,10,20,11,11,13.40
2016,10,20,11,12,13.40
2016,10,20,11,13,13.40
2016,10,20,11,14,13.40
2016,10,20,11,15,13.50
2016,10,20,11,16,13.60
2016,10,20,11,17,13.70
2016,10,20,11,18,13.70
2016,10,20,11,19,13.80
2016,10,20,11,20,14.00
2016,10,20,11,21,14.10
2016,10,20,11,22,14.30
2016,10,20,11,23,14.40
2016,10,20,11,24,14.50
2016,10,20,11,25,14.60
2016,10,20,11,26,14.60
2016,10,20,11,27,14.80
2016,10,20,11,28,14.90
2016,10,20,11,29,15.00
2016,10,20,11,30,15.20
2016,10,20,11,31,15.30
2016,10,20,11,32,15.50
2016,10,20,11,33,15.60
2016,10,20,11,34,15.70
2016,10,20,11,35,15.80
2016,10,20,11,36,15.90
2016,10,20,11,37,16.00
2016,10,20,11,38,16.10
2016,10,20,11,39,16.20
2016,10,20,11,40,16.20
2016,10,20,11,41,16.20
2016,10,20,11,42,16.10
2016,10,20,11,43,16.10
2016,10,20,11,44,16.10
2016,10,20,11,45,16.20
2016,10,20,11,46,16.20
2016,10,20,11,47,16.20
2016,10,20,11,48,16.20
2016,10,20,11,49,16.20
2016,10,20,11,50,16.20
2016,10,20,11,51,16.30
2016,10,20,11,52,16.30
2016,10,20,11,53,16.30
2016,10,20,11,54,16.30
2016,10,20,11,55,16.30
2016,10,20,11,56,16.30
2016,10,20,11,57,16.40
2016,10,20,11,58,16.40
2016,10,20,11,59,16.30
2016,10,20,12,00,16.30
2016,10,20,12,01,16.30
2016,10,20,12,02,16.20
2016,10,20,12,03,16.20
2016,10,20,12,04,16.30
2016,10,20,12,05,16.30
2016,10,20,12,06,16.30
2016,10,20,12,07,16.30
2016,10,20,12,08,16.30
2016,10,20,12,09,16.30
2016,10,20,12,10,16.30
2016,10,20,12,11,16.40
2016,10,20,12,12,16.40
2016,10,20,12,13,16.40
2016,10,20,12,14,16.40
2016,10,20,12,15,16.40
2016,10,20,12,16,16.40
2016,10,20,12,17,16.40
2016,10,20,12,18,16.40
2016,10,20,12,19,16.30
2016,10,20,12,20,16.30
2016,10,20,12,21,16.30
2016,10,20,12,22,16.30
2016,10,20,12,23,16.40
2016,10,20,12,24,16.40
2016,10,20,12,25,16.40
2016,10,20,12,26,16.40
2016,10,20,12,27,16.40
2016,10,20,12,28,16.40
2016,10,20,12,29,16.50
2016,10,20,12,30,16.60
2016,10,20,12,31,16.70
2016,10,20,12,32,16.70
2016,10,20,12,33,16.80
2016,10,20,12,34,16.80
2016,10,20,12,35,16.80
2016,10,20,12,36,16.80
2016,10,20,12,37,16.70
2016,10,20,12,38,16.80
2016,10,20,12,39,16.80
2016,10,20,12,40,16.80
2016,10,20,12,41,16.80
2016,10,20,12,42,16.80
2016,10,20,12,43,16.90
2016,10,20,12,44,17.00
2016,10,20,12,45,17.10
2016,10,20,12,46,17.10
2016,10,20,12,47,17.00
2016,10,20,12,48,16.90
2016,10,20,12,49,17.00
2016,10,20,12,50,17.00
2016,10,20,12,51,17.10
2016,10,20,12,52,17.10
2016,10,20,12,53,17.00
2016,10,20,12,54,17.00
2016,10,20,12,55,17.00
2016,10,20,12,56,17.00
2016,10,20,12,57,17.00
2016,10,20,12,58,16.90
2016,10,20,12,59,16.90
2016,10,20,13,00,16.90
2016,10,20,13,01,17.00
2016,10,20,13,02,17.00
2016,10,20,13,03,17.00
2016,10,20,13,04,17.00
2016,10,20,13,05,17.00
2016,10,20,13,06,17.10
2016,10,20,13,07,17.00
2016,10,20,13,08,16.90
2016,10,20,13,09,16.90
2016,10,20,13,10,16.90
2016,10,20,13,11,16.90
2016,10,20,13,12,16.90
2016,10,20,13,13,16.90
2016,10,20,13,14,16.90
2016,10,20,13,15,16.90
2016,10,20,13,16,16.90
2016,10,20,13,17,16.90
2016,10,20,13,18,17.00
2016,10,20,13,19,17.10
2016,10,20,13,20,17.10
2016,10,20,13,21,17.10
2016,10,20,13,22,17.10
2016,10,20,13,23,17.10
2016,10,20,13,24,17.00
2016,10,20,13,25,17.00
2016,10,20,13,26,16.90
2016,10,20,13,27,16.90
2016,10,20,13,28,16.90
2016,10,20,13,29,16.90
2016,10,20,13,30,16.90
2016,10,20,13,31,16.80
2016,10,20,13,32,16.80
2016,10,20,13,33,16.80
2016,10,20,13,34,16.70
2016,10,20,13,35,16.70
2016,10,20,13,36,16.70
2016,10,20,13,37,16.70
2016,10,20,13,38,16.60
2016,10,20,13,39,16.60
2016,10,20,13,40,16.60
2016,10,20,13,41,16.60
2016,10,20,13,42,16.50
2016,10,20,13,43,16.40
2016,10,20,13,44,16.40
2016,10,20,13,45,16.40
2016,10,20,13,46,16.40
2016,10,20,13,47,16.40
2016,10,20,13,48,16.30
2016,10,20,13,49,16.30
2016,10,20,13,50,16.40
2016,10,20,13,51,16.40
2016,10,20,13,52,16.30
2016,10,20,13,53,16.30
2016,10,20,13,54,16.20
2016,10,20,13,55,16.20
2016,10,20,13,56,16.10
2016,10,20,13,57,16.10
2016,10,20,13,58,16.10
2016,10,20,13,59,16.00
2016,10,20,14,00,16.00
2016,10,20,14,01,16.00
2016,10,20,14,02,15.90
2016,10,20,14,03,15.90
2016,10,20,14,04,15.90
2016,10,20,14,05,15.90
2016,10,20,14,06,15.90
2016,10,20,14,07,15.90
2016,10,20,14,08,16.00
2016,10,20,14,09,16.10
2016,10,20,14,10,16.10
2016,10,20,14,11,16.20
2016,10,20,14,12,16.20
2016,10,20,14,13,16.30
2016,10,20,14,14,16.30
2016,10,20,14,15,16.30
2016,10,20,14,16,16.30
2016,10,20,14,17,16.30
2016,10,20,14,18,16.30
2016,10,20,14,19,16.30
2016,10,20,14,20,16.30
2016,10,20,14,21,16.30
2016,10,20,14,22,16.40
2016,10,20,14,23,16.40
2016,10,20,14,24,16.40
2016,10,20,14,25,16.40
2016,10,20,14,26,16.40
2016,10,20,14,27,16.40
2016,10,20,14,28,16.30
2016,10,20,14,29,16.30
2016,10,20,14,30,16.30
2016,10,20,14,31,16.20
2016,10,20,14,32,16.20
2016,10,20,14,33,16.20
2016,10,20,14,34,16.20
2016,10,20,14,35,16.20
2016,10,20,14,36,16.30
2016,10,20,14,37,16.30
2016,10,20,14,38,16.40
2016,10,20,14,39,16.40
2016,10,20,14,40,16.50
2016,10,20,14,41,16.50
2016,10,20,14,42,16.60
2016,10,20,14,43,16.60
2016,10,20,14,44,16.60
2016,10,20,14,45,16.60
2016,10,20,14,46,16.60
2016,10,20,14,47,16.60
2016,10,20,14,48,16.50
2016,10,20,14,49,16.50
2016,10,20,14,50,16.40
2016,10,20,14,51,16.40
2016,10,20,14,52,16.40
2016,10,20,14,53,16.30
2016,10,20,14,54,16.30
2016,10,20,14,55,16.30
2016,10,20,14,56,16.30
2016,10,20,14,57,16.30
2016,10,20,14,58,16.30
2016,10,20,14,59,16.30
2016,10,20,15,00,16.30
2016,10,20,15,01,16.40
2016,10,20,15,02,16.40
2016,10,20,15,03,16.50
2016,10,20,15,04,16.60
2016,10,20,15,05,16.70
2016,10,20,15,06,16.70
2016,10,20,15,07,16.70
2016,10,20,15,08,16.70
2016,10,20,15,09,16.70
2016,10,20,15,10,16.70
2016,10,20,15,11,16.70
2016,10,20,15,12,16.70
2016,10,20,15,13,16.70
2016,10,20,15,14,16.70
2016,10,20,15,15,16.70
2016,10,20,15,16,16.70
2016,10,20,15,17,16.70
2016,10,20,15,18,16.60
2016,10,20,15,19,16.60
2016,10,20,15,20,16.50
2016,10,20,15,21,16.60
2016,10,20,15,22,16.60
2016,10,20,15,23,16.60
2016,10,20,15,24,16.70
2016,10,20,15,25,16.70
2016,10,20,15,26,16.70
2016,10,20,15,27,16.70
2016,10,20,15,28,16.80
2016,10,20,15,29,16.90
2016,10,20,15,30,16.90
2016,10,20,15,31,16.90
2016,10,20,15,32,16.90
2016,10,20,15,33,16.80
2016,10,20,15,34,16.70
2016,10,20,15,35,16.60
2016,10,20,15,36,16.60
2016,10,20,15,37,16.60
2016,10,20,15,38,16.60
2016,10,20,15,39,16.60
2016,10,20,15,40,16.60
2016,10,20,15,41,16.60
2016,10,20,15,42,16.60
2016,10,20,15,43,16.60
2016,10,20,15,44,16.50
2016,10,20,15,45,16.50
2016,10,20,15,46,16.60
2016,10,20,15,47,16.60
2016,10,20,15,48,16.60
2016,10,20,15,49,16.70
2016,10,20,15,50,16.70
2016,10,20,15,51,16.70
2016,10,20,15,52,16.60
2016,10,20,15,53,16.60
2016,10,20,15,54,16.60
2016,10,20,15,55,16.60
2016,10,20,15,56,16.60
2016,10,20,15,57,16.70
2016,10,20,15,58,16.60
2016,10,20,15,59,16.60
2016,10,20,16,00,16.50
2016,10,20,16,01,16.50
2016,10,20,16,02,16.40
2016,10,20,16,03,16.40
2016,10,20,16,04,16.40
2016,10,20,16,05,16.40
2016,10,20,16,06,16.30
2016,10,20,16,07,16.30
2016,10,20,16,08,16.30
2016,10,20,16,09,16.30
2016,10,20,16,10,16.30
2016,10,20,16,11,16.30
2016,10,20,16,12,16.30
2016,10,20,16,13,16.20
2016,10,20,16,14,16.20
2016,10,20,16,15,16.20
2016,10,20,16,16,16.20
2016,10,20,16,17,16.20
2016,10,20,16,18,16.20
2016,10,20,16,19,16.10
2016,10,20,16,20,16.10
2016,10,20,16,21,16.10
2016,10,20,16,22,16.10
2016,10,20,16,23,16.10
2016,10,20,16,24,16.10
2016,10,20,16,25,16.10
2016,10,20,16,26,16.10
2016,10,20,16,27,16.10
2016,10,20,16,28,16.10
2016,10,20,16,29,16.10
2016,10,20,16,30,16.10
2016,10,20,16,31,16.10
2016,10,20,16,32,16.10
2016,10,20,16,33,16.10
2016,10,20,16,34,16.10
2016,10,20,16,35,16.20
2016,10,20,16,36,16.20
2016,10,20,16,37,16.30
2016,10,20,16,38,16.30
2016,10,20,16,39,16.40
2016,10,20,16,40,16.40
2016,10,20,16,41,16.40
2016,10,20,16,42,16.40
2016,10,20,16,43,16.40
2016,10,20,16,44,16.40
2016,10,20,16,45,16.40
2016,10,20,16,46,16.40
2016,10,20,16,47,16.40
2016,10,20,16,48,16.40
2016,10,20,16,49,16.40
2016,10,20,16,50,16.50
2016,10,20,16,51,16.50
2016,10,20,16,52,16.50
2016,10,20,16,53,16.50
2016,10,20,16,54,16.50
2016,10,20,16,55,16.40
2016,10,20,16,56,16.40
2016,10,20,16,57,16.40
2016,10,20,16,58,16.30
2016,10,20,16,59,16.30
2016,10,20,17,00,16.30
2016,10,20,17,01,16.30
2016,10,20,17,02,16.30
2016,10,20,17,03,16.20
2016,10,20,17,04,16.20
2016,10,20,17,05,16.20
2016,10,20,17,06,16.20
2016,10,20,17,07,16.20
2016,10,20,17,08,16.30
2016,10,20,17,09,16.30
2016,10,20,17,10,16.30
2016,10,20,17,11,16.30
2016,10,20,17,12,16.30
2016,10,20,17,13,16.30
2016,10,20,17,14,16.30
2016,10,20,17,15,16.20
2016,10,20,17,16,16.20
2016,10,20,17,17,16.10
2016,10,20,17,18,16.10
2016,10,20,17,19,16.10